This is the latest recevied weather packets stored in our database for station/object EA1CUE-WX. If no packets are shown the sender has not sent any weather packets the latest 10 day(s).
| Time | Temp. | Humidity | Pressure | Rain* | Wind** | Luminosity | Snow |
|---|---|---|---|---|---|---|---|
| 1787540329 | 15° C | 1% | 1011 hPa | 0 mm | - | - | - |
| 1787540029 | 15° C | 1% | 1011 hPa | 0 mm | - | - | - |
| 1787539729 | 15.56° C | 1% | 1011 hPa | 0 mm | - | - | - |
| 1787539429 | 16.11° C | 1% | 1011 hPa | 0 mm | - | - | - |
| 1787539129 | 16.11° C | 1% | 1011 hPa | 0 mm | - | - | - |
| 1787538829 | 16.67° C | 9% | 1010.9 hPa | 0 mm | - | - | - |
| 1787538529 | 16.67° C | 13% | 1011 hPa | 0 mm | - | - | - |
| 1787538229 | 17.22° C | 15% | 1011.1 hPa | 0 mm | - | - | - |
| 1787537929 | 17.22° C | 17% | 1011.2 hPa | 0 mm | - | - | - |
| 1787537629 | 17.22° C | 19% | 1011.3 hPa | 0 mm | - | - | - |
| 1787537329 | 17.22° C | 23% | 1011.2 hPa | 0 mm | - | - | - |
| 1787537029 | 17.22° C | 30% | 1011.4 hPa | 0 mm | - | - | - |
| 1787536729 | 17.78° C | 33% | 1011.3 hPa | 0 mm | - | - | - |
| 1787536429 | 17.78° C | 35% | 1011.4 hPa | 0 mm | - | - | - |
| 1787536129 | 17.78° C | 37% | 1011.4 hPa | 0 mm | - | - | - |
| 1787535829 | 17.78° C | 38% | 1011.4 hPa | 0 mm | - | - | - |
| 1787535529 | 17.78° C | 40% | 1011.5 hPa | 0 mm | - | - | - |
| 1787535229 | 18.33° C | 43% | 1011.6 hPa | 0 mm | - | - | - |
| 1787534929 | 18.33° C | 46% | 1011.6 hPa | 0 mm | - | - | - |
| 1787534629 | 18.89° C | 47% | 1011.6 hPa | 0 mm | - | - | - |
| 1787534329 | 18.89° C | 48% | 1011.8 hPa | 0 mm | - | - | - |
| 1787534029 | 18.33° C | 48% | 1012 hPa | 0 mm | - | - | - |
| 1787533729 | 18.33° C | 47% | 1011.8 hPa | 0 mm | - | - | - |
| 1787533429 | 18.89° C | 47% | 1011.9 hPa | 0 mm | - | - | - |
| 1787533129 | 18.33° C | 47% | 1012.1 hPa | 0 mm | - | - | - |
* Rain latest hour (hover to see other rain measurements)
** Current wind speed in m/s (hover to see current wind gust speed)